Weather History for Lancaster, OH

Change the Weather History Date:

Thursday, January 3, 2013

  Actual Average Record
Temperature  
Mean Temperature 16 °F -  
Max Temperature 30 °F 35 °F 64 °F (2004)
Min Temperature 1 °F 19 °F -2 °F (1979)
Degree Days  
Heating Degree Days 50    
Moisture  
Dew Point 11 °F    
Average Humidity 72    
Maximum Humidity 91    
Minimum Humidity 53    
Precipitation  
Precipitation 0.00 in - - ()
Sea Level Pressure  
Sea Level Pressure 30.27 in    
Wind  
Wind Speed 3 mph (West)    
Max Wind Speed 10 mph    
Max Gust Speed 18 mph    
Visibility 8 miles    
Events      
Averages and records for this station are not official NWS values.
T = Trace of Precipitation, MM = Missing Value Source: NWS Daily Summary

Daily Weather History Graph

Daily Weather History Graph

Search for Another Location

Airport:

Trip Planner

Search our weather history database for the weather conditions in past years. The results will help you decide how hot, cold, wet, or windy it might be!

Date:

Astronomy

Jan. 03, 2013 Rise Set
Actual Time 7:51 AM EST 5:18 PM EST
Civil Twilight 7:21 AM EST 5:49 PM EST
Nautical Twilight 6:48 AM EST 6:22 PM EST
Astronomical Twilight 6:15 AM EST 6:55 PM EST
Moon 11:52 PM EST (1/3) 11:03 AM EST (1/3)
Length of Visible Light 10h 27m
Length of Day
9h 26m
Waning Gibbous, 65% of the Moon is Illuminated
Jan 3
Waning Gibbous
Jan 4
Last Quarter
Jan 11
New
Jan 18
First Quarter
Jan 26
Full

Hourly Weather History & Observations

Time (EST) Temp. Windchill Dew Point Humidity Pressure Visibility Wind Dir Wind Speed Gust Speed Precip Events Conditions
12:53 AM 7.0 °F - 3.9 °F 87% 30.25 in 2.5 mi Calm Calm - N/A   Clear
1:07 AM 6.8 °F - 3.2 °F 85% 30.21 in 4.0 mi Calm Calm - N/A   Clear
1:53 AM 6.1 °F - 1.9 °F 83% 30.25 in 4.0 mi Calm Calm - N/A   Clear
2:53 AM 6.1 °F - 1.9 °F 83% 30.26 in 4.0 mi Calm Calm - N/A   Clear
3:20 AM 5.0 °F - 1.4 °F 85% 30.21 in 4.0 mi Calm Calm - N/A   Partly Cloudy
3:53 AM 5.0 °F - -0.0 °F 80% 30.25 in 6.0 mi Calm Calm - N/A   Haze
4:53 AM 5.0 °F - 1.0 °F 84% 30.24 in 6.0 mi Calm Calm - N/A   Clear
5:53 AM 1.0 °F - -2.9 °F 83% 30.26 in 5.0 mi Calm Calm - N/A   Clear
7:53 AM 1.9 °F - -2.9 °F 80% 30.29 in 4.0 mi Calm Calm - N/A   Haze
8:53 AM 3.9 °F - 1.9 °F 91% 30.28 in 5.0 mi Calm Calm - N/A   Clear
9:53 AM 18.0 °F 12.7 °F 15.1 °F 88% 30.27 in 5.0 mi South 3.5 mph - N/A   Clear
10:53 AM 25.0 °F 19.3 °F 14.0 °F 63% 30.27 in 10.0 mi SW 4.6 mph - N/A   Clear
11:53 AM 28.0 °F 20.8 °F 12.9 °F 53% 30.25 in 10.0 mi West 6.9 mph - N/A   Clear
12:53 PM 28.0 °F 20.0 °F 14.0 °F 56% 30.24 in 10.0 mi WSW 8.1 mph - N/A   Clear
1:53 PM 30.0 °F 21.7 °F 15.1 °F 54% 30.22 in 10.0 mi WSW 9.2 mph - N/A   Clear
2:53 PM 30.9 °F 22.8 °F 16.0 °F 54% 30.23 in 10.0 mi West 9.2 mph - N/A   Clear
3:53 PM 30.9 °F 22.8 °F 17.1 °F 57% 30.25 in 10.0 mi West 9.2 mph - N/A   Mostly Cloudy
4:53 PM 30.0 °F 21.7 °F 18.0 °F 61% 30.27 in 10.0 mi West 9.2 mph 18.4 mph N/A   Overcast
5:53 PM 28.9 °F 21.1 °F 19.0 °F 67% 30.28 in 10.0 mi West 8.1 mph - N/A   Overcast
6:53 PM 28.9 °F 21.9 °F 19.9 °F 69% 30.30 in 10.0 mi West 6.9 mph - N/A   Overcast
7:53 PM 28.9 °F 21.1 °F 19.9 °F 69% 30.31 in 10.0 mi West 8.1 mph - N/A   Overcast
8:53 PM 28.9 °F 21.1 °F 19.9 °F 69% 30.31 in 10.0 mi West 8.1 mph - N/A   Overcast
9:53 PM 28.9 °F 22.8 °F 19.9 °F 69% 30.31 in 10.0 mi West 5.8 mph - N/A   Overcast
10:06 PM 28.4 °F 19.7 °F 19.4 °F 69% 30.28 in 10.0 mi WNW 9.2 mph - N/A   Overcast
10:53 PM 30.0 °F 21.1 °F 19.0 °F 64% 30.32 in 10.0 mi WNW 10.4 mph 18.4 mph N/A   Overcast
11:53 PM 28.9 °F 20.4 °F 19.9 °F 69% 30.30 in 10.0 mi West 9.2 mph - N/A   Overcast